Flag for United Kingdom Weather past 2 weeks in Peterborough, England, United Kingdom

Now
54 °F

Cool.


Feels Like: 50 °F
Forecast: 47 / 66 °F
Wind: 13 mph from West

Location: Wittering

Current Time: Aug 23, 2014 at 9:26:41 AM

Latest Report: Aug 23, 2014 at 8:50 AM


Visibility: N/A

Pressure: 29.92 "Hg

Humidity: 77%

Dew point: 46 °F

Location of PeterboroughLocation

Historic Weather in Peterborough — Graph

°F

Peterborough temperature yesterday

Maximum temperature yesterday: 63 °F (at 1:50 PM)
Minimum temperature yesterday: 48 °F (at 10:50 PM)
Average temperature yesterday: 55 °F

Past Weeks' High & Low Weather Summary

 TemperatureHumidityPressure
High72 °F (Aug 9, 2:50 PM)100% (Aug 8, 8:50 PM)30.12 "Hg (Aug 8, 8:50 PM)
Low45 °F (Aug 20, 3:50 AM)45% (Aug 19, 1:50 PM)29.24 "Hg (Aug 10, 12:50 PM)
Average58 °F75%29.78 "Hg
* Reported Aug 8 7:50 AM — Aug 23 7:50 AM, Peterborough, Weather by CustomWeather, © 2014

Note: Actual official high and low records may vary slightly from our data, if they occured in-between our weather recording intervals... More about our weather records

Advertising

Peterborough weather history for previous 24 hours

 ConditionsComfort  
Time TempWeatherWind HumidityBarometerVisibility
7:50 AM
Aug 23
48 °FScattered clouds.10 mph94%29.92 "HgN/A
6:50 AM46 °FPassing clouds.8 mph93%29.92 "HgN/A
5:50 AM45 °FQuite cool.10 mph93%29.89 "HgN/A
4:50 AM45 °FQuite cool.9 mph93%29.89 "HgN/A
3:50 AM46 °FPassing clouds.10 mph87%29.89 "HgN/A
2:50 AM45 °FPassing clouds.9 mph93%29.92 "HgN/A
1:50 AM46 °FCool.9 mph87%29.92 "HgN/A
12:50 AM46 °FCool.8 mph87%29.92 "HgN/A
11:50 PM
Aug 22
48 °FCool.10 mph82%29.92 "HgN/A
10:50 PM48 °FPassing clouds.10 mph82%29.92 "HgN/A
9:50 PM52 °FPassing clouds.8 mph72%29.89 "HgN/A
8:50 PM57 °FPartly sunny.10 mph63%29.89 "HgN/A
7:50 PM59 °FPartly sunny.10 mph59%29.86 "HgN/A
6:50 PM57 °FPartly sunny.7 mph77%29.86 "HgN/A
5:50 PM59 °FOvercast.8 mph59%29.86 "HgN/A
4:50 PM61 °FPartly sunny.7 mph63%29.86 "HgN/A
3:50 PM55 °FSprinkles. Partly sunny.18 mph77%29.86 "HgN/A
2:50 PM57 °FDrizzle. Partly sunny.14 mph63%29.86 "HgN/A
1:50 PM63 °FPartly sunny.12 mph49%29.83 "HgN/A
12:50 PM57 °FPartly sunny.8 mph72%29.83 "HgN/A
11:50 AM59 °FScattered clouds.10 mph68%29.80 "HgN/A
10:50 AM59 °FPassing clouds.13 mph68%29.80 "HgN/A
9:50 AM57 °FScattered clouds.14 mph72%29.80 "HgN/A
Weather by CustomWeather, © 2014

See weather overviewHow to use our weather pages